CZ-6A DEB

Satellite information

Favourite Embed

Satellite Type and Status

DEBRISIN ORBIT

Key statistics

Satellite CZ-6A DEB at a glance.

Uptime

969

Days in orbit

Revolutions

≈ 14.1

Per day

Orbit

SSO

Sun Synchronous Orbit

Inclination

98.8

Latest

Satellite identification and parameters

Extended collection of information and parameters for CZ-6A DEB.

Object identification

Identified? True

Debris? True

Object name: CZ-6A DEB

International designator: 2022-151JG

Object number (NORAD): 54504

Object ID (CCSDS): 54504

Country: PEOPLES REPUBLIC OF CHINA (PRC)

Current information (Y/N): Y

RCS size: LARGE

Orbital parameters

Period: 101.859 minutes

Inclination: 98.8361 deg

SMA: 7224.809 km

Apoapsis: 875.407 km

Periapsis: 817.941 km

RAAN: 194.5919 deg

Eccentricy: 0.003977

Argument of periapsis: 193.7444 deg

Mean anomaly: 166.2649 deg

Mean motion: 14.13719488 rev/day

Mean motion (dot): 0.00000688 rev/day2

B* drag term: 0.00038452 1/REarth

Two-line elements (TLE)

Creation date: July 6, 2025, 10:56 p.m.

Reference frame: TEME

Reference center: EARTH

Epoch: July 6, 2025, 9:06 p.m. UTC

TLE line 0: 0 CZ-6A DEB

TLE line 1: 1 54504U 22151JG 25187.87964827 .00000688 00000-0 38452-3 0 9990

TLE line 2: 2 54504 98.8361 194.5919 0039770 193.7444 166.2649 14.13719488136359

Live tracking on map

Real-time ground track for satellite CZ-6A DEB.

In-orbit conjunctions

A list of the most updated potential collisions computed for object CZ-6A DEB.

Target Orbit TCA Probability of collision Miss distance Type
DELTA 1 DEB SSO 2024-11-12 21:06:37 0.0002055854 858.0 (m) DEBRIS
CZ-6A DEB LEO 2024-11-02 05:58:26 0.000166914 664.0 (m) DEBRIS
FENGYUN 1C DEB SSO 2024-09-06 16:21:40 0.0002678381 95.0 (m) DEBRIS
CZ-6A DEB SSO 2024-08-07 14:30:54 0.0001507312 751.0 (m) DEBRIS

Associated space launch

Chinese satellite reported for atmospheric/ocean/environmental/spatial parameter research purposes, details TBD.

CZ-6A DEB was lifted into orbit during the mission ‘Long March 6A | Yunhai 3’, on board a Long March 6A space rocket.

The launch took place on Nov. 11, 2022, 10:52 p.m. from Launch Complex 9A.

For more information about the launch, click the button.

Launch to space Long March 6A | Yunhai 3
Long March 6A | Yunhai 3

Agency: N/A

Status: Launch Successful

Launch date: Nov. 11, 2022, 10:52 p.m. UTC

Rocket: Long March 6A

Launch pad: Launch Complex 9A

Location: Taiyuan Satellite Launch Center, People's Republic of China

...

Latest news about this satellite

There are no fresh news available about this satellite. Check back as we update our databases every day.


Newsletter sign-up

Weekly statistics, charts and insights to help you stay on top of the space industry.